User: anonymous   Login
Location: Unspecified
(0.0000°N, 0.0000°E)
Time: 20:16:45
(UTC+02:00)
Language:

Cosmos 494 Rocket - Orbit

View from above orbital plane
View from above orbital plane
View from above satellite
View from above satellite

Ground track
Ground track

The orbit data is extracted from the following two-line orbital elements,

1 06061U 72043B   16181.18872437  .00000011  00000-0  11728-4 0  9991
2 06061  74.0573 112.0864 0020522 328.3151  31.6767 14.40460713307489
Epoch (UTC): 29 June 2016 04:31:45
Eccentricity: 0.0020522
inclination: 74.0573°
perigee height: 742 km
apogee height: 771 km
right ascension of ascending node: 112.0864°
argument of perigee: 328.3151°
revolutions per day: 14.40460713
mean anomaly at epoch: 31.6767°
orbit number at epoch: 30748

The dashed part of the orbit path shows where the satellite is in the earth's shadow,  

DLR